Weather in Stolypino

Russia / Penza Oblast     53°46′53″N   45°58′46″E
temp.,
°C
wind,
m/s
gust,
m/s
humid.,
%
clouds,
%
prec.,
mm/h
press.,
hPa
HPBL,
m
4 march, thu
thu400:00−10wsw4109629 0.0 1010177
03:00−6wsw6129563 0.3 1008498
06:00−3wsw71394100 0.3 1005715
09:00−2wsw81491100 0.6 1003891
12:000wsw101696100 0.5 10011014
15:000wsw101792100 0.6 10001110
18:00−1w91596100 0.7 10001024
21:00−2wsw61297100 2.1 1001663
5 march, fri
fri500:00−2wsw4897100 1.6 1000471
03:00−3n1298100 3.6 1000101
06:00−4n2597100 1.6 1001251
09:00−4nnw3596100 2.3 1003372
12:00−3nnw3488100 0.3 1006597
15:00−3nw4584100 0.3 1008754
18:00−9w239215 0.0 101021
21:00−10wsw339410 0.0 101336
6 march, sat
sat600:00−9wsw479688 0.1 1013164
03:00−12w359994 0.1 101588
06:00−14wnw2398100 0.0 101540
09:00−11nw2494100 0.1 1016181
12:00−8nnw2379100 0.0 1016421
15:00−8nnw3479100 0.0 1015497
18:00−14n229065 0.0 101521
21:00−17nnw118835 0.0 101620
7 march, sun
sun700:00−17wsw12820 0.0 101520
03:00−15sw238546 0.0 101532
06:00−15sw489589 0.1 1015167
09:00−10wsw599490 0.2 1014392
12:00−7wsw6108299 0.1 1011871
15:00−6sw7128283 0.1 1009834
18:00−7sw81690100 0.1 10061030
21:00−6sw101793100 1.1 10021120
8 march, mon
mon800:00−4sw91693100 0.9 10001059
03:00−11w498787 1.2 1002177
06:00−14sw46890 0.0 100395
09:00−8ssw59810 0.0 1002295
12:00−5s599497 0.2 999656
15:00−2wsw7138398 2.0 9971586
18:00−10w8168276 0.7 1000888
21:00−10w9179081 0.8 1004930